GORIZONT 15 [-]

Last updated on Nov. 18, 2019, 4:21 a.m. UTC

1 19017U 88028A   19320.53712396 -.00000080  00000-0  00000-0 0  9994
2 19017  15.4744 350.0729 0031351 130.0336 233.1854  0.97827559 95989
UTC
Height (km)
Latitude
Longitude
Inclination
Orbital Period
UTC large
Height (km)
Speed (km/s)
/
Latitude / Longitude
Inclination (degrees)
Orbital Period (minutes)
Azimuth
Elevation
Range (km)
Doppler Factor
iOS Compass Heading
iOS Angle

Next 30 passes for location: Hong Kong

Rise time Rise Azimuth (degrees) Set time Set Azimuth (degrees) Duration Max altitude (degrees)

No matching passes for this satellites